Notices

What's New in latest Release from April 7th, 2021:

- Updated Glossary, including Speed of Maximum Gust, and Total Hourly Precipitation

- Updated national and regional climate services offices contacts and prices information

- Addition of station inventory lists for 1981-2010, 1971-2000, and 1961-1990 Normals.

If you haven't already, please take our survey and provide feedback about our website: https://eccc.sondage-survey.ca/f/LanguageSelection.aspx?s=442ca660-fcf1-47c0-95a9-59707d6fd709

Hourly Data Report for September 16, 2019

TORONTO CITY
ONTARIO
Current Station Operator: ECCC - MSC

43°40'00.000" N
79°24'00.000" W
112.50 m
6158355
71508
XTO

Download Data

Hourly Data (September 2019)
Hourly Data Report for September 16, 2019
TIME
LST
Temp Definition
°C
Dew Point Definition
°C
Rel Hum Definition
%
Precip. Amount Definition
mm

Wind Dir Definition
10's deg

Wind Spd Definition
km/h
Visibility Definition
km
Stn Press Definition
kPa
Hmdx Definition


Wind Chill Definition


Weather Definition


00:00 16.6 12.2 75 0.0       100.59     LegendNANA
01:00 16.5 12.3 76 0.0       100.56     LegendNANA
02:00 16.4 12.4 77 0.0       100.52     LegendNANA
03:00 16.4 12.4 77 0.0       100.54     LegendNANA
04:00 16.2 12.1 77 0.0       100.55     LegendNANA
05:00 16.2 12.4 78 0.0       100.54     LegendNANA
06:00 16.4 12.8 80 0.0       100.60     LegendNANA
07:00 16.4 12.7 79 0.0       100.61     LegendNANA
08:00 16.5 12.1 75 0.0       100.64     LegendNANA
09:00 17.1 12.7 75 0.0       100.66     LegendNANA
10:00 17.5 13.8 79 0.0       100.63     LegendNANA
11:00 17.6 14.0 80 0.0       100.65     LegendNANA
12:00 17.7 13.9 78 0.0       100.64     LegendNANA
13:00 17.9 12.6 71 0.0       100.63     LegendNANA
14:00 17.7 11.7 68 0.0       100.63     LegendNANA
15:00 16.5 11.9 74 0.0       100.62     LegendNANA
16:00 16.8 11.5 71 0.0       100.60     LegendNANA
17:00 17.3 11.6 69 0.0       100.62     LegendNANA
18:00 17.2 9.5 60 0.0       100.64     LegendNANA
19:00 17.5 10.8 65 0.0       100.66     LegendNANA
20:00 17.3 10.2 63 0.0       100.67     LegendNANA
21:00 16.9 9.6 62 0.0       100.69     LegendNANA
22:00 15.8 9.5 66 0.0       100.70     LegendNANA
23:00 15.5 9.1 66 0.0       100.76     LegendNANA

Notes on Data Quality.

Legend

  • E = Estimated
  • M = Missing
  • NA = Not Available*
  • [empty] = Indicates an unobserved value
Date modified: